Tracking 29892 objects as of 21-Nov-2024
HD Live streaming from Space Station
objects crossing your sky now

COSMOS 1269

Track COSMOS 1269 now!
10-day predictions
COSMOS 1269 is classified as:


NORAD ID: 12442
Int'l Code: 1981-041A
Perigee: 782.0 km
Apogee: 796.9 km
Inclination: 74.1 °
Period: 100.5 minutes
Semi major axis: 7160 km
RCS: 2.2283 m2 (large)
Launch date: May 7, 1981
Source: Commonwealth of Independent States (former USSR) (CIS)
Launch site: PLESETSK MISSILE AND SPACE COMPLEX (PKMTR)
Your satellite tracking list
Your tracking list is empty




NASA's NSSDC Master Catalog

Two Line Element Set (TLE):
1 12442U 81041A   24325.41964539  .00000301  00000-0  11985-3 0  9995
2 12442  74.0534 332.6777 0010402 336.0566  24.0100 14.32833960273793
Source of the keplerian elements: AFSPC